Flag for Norway Weather past 2 weeks in Flekkefjord, Norway

Now
68 °F

Mild.


Feels Like: 68 °F
Forecast: 59 / 70 °F
Wind: 6 mph from Southeast

Location: Lista Fyr

Current Time: Jul 1, 2015 at 10:04:03 PM

Latest Report: Jul 1, 2015 at 9:00 PM


Visibility: N/A

Pressure: 30.21 "Hg

Humidity: 61%

Dew point: 54 °F

Location of FlekkefjordLocation

Historic Weather in Flekkefjord — Graph

°F

Flekkefjord temperature yesterday

Maximum temperature yesterday: 59 °F (at 4:00 PM)
Minimum temperature yesterday: 53 °F (at 5:00 AM)
Average temperature yesterday: 56 °F

Past Weeks' High & Low Weather Summary

 TemperatureHumidityPressure
High70 °F (Jul 1, 6:00 PM)99% (Jun 28, 3:00 AM)30.27 "Hg (Jun 28, 3:00 AM)
Low46 °F (Jun 17, 6:00 AM)54% (Jul 1, 5:00 PM)29.67 "Hg (Jun 23, 1:00 AM)
Average54 °F85%29.93 "Hg
* Reported Jun 16 8:00 PM — Jul 1 8:00 PM, Flekkefjord, Weather by CustomWeather, © 2015

Note: Actual official high and low records may vary slightly from our data, if they occured in-between our weather recording intervals... More about our weather records

Advertising

Flekkefjord weather history for previous 24 hours

 ConditionsComfort  
Time TempWeatherWind HumidityBarometerVisibility
8:00 PM
Wed, Jul 1
69 °FSunny.6 mph58%30.21 "Hg19 mi
7:00 PM70 °FMild.6 mph55%30.23 "HgN/A
6:00 PM70 °FMild.7 mph56%30.23 "HgN/A
5:00 PM69 °FMild.7 mph54%30.24 "HgN/A
4:00 PM68 °FMild.7 mph56%30.25 "HgN/A
3:00 PM67 °FMild.6 mph61%30.26 "HgN/A
2:00 PM65 °FSunny.6 mph74%30.27 "Hg19 mi
1:00 PM64 °FMild.6 mph66%30.26 "HgN/A
12:00 PM62 °FCool.6 mph79%30.26 "HgN/A
11:00 AM62 °FSunny.6 mph79%30.25 "Hg19 mi
10:00 AM62 °FCool.3 mph79%30.25 "HgN/A
9:00 AM61 °FCool.3 mph80%30.25 "HgN/A
8:00 AM62 °FSunny.2 mph79%30.24 "Hg16 mi
7:00 AM60 °FCool.1 mph82%30.24 "HgN/A
6:00 AM54 °FCool.1 mph86%30.24 "HgN/A
5:00 AM52 °FCool.3 mph93%30.24 "HgN/A
4:00 AM53 °FCool.1 mph87%30.24 "HgN/A
3:00 AM56 °FCool.1 mph85%30.23 "HgN/A
2:00 AM58 °FCool.1 mph74%30.23 "HgN/A
1:00 AM58 °FCool.1 mph78%30.22 "HgN/A
12:00 AM57 °FCool.2 mph88%30.22 "HgN/A
11:00 PM
Tue, Jun 30
57 °FCool.2 mph90%30.22 "HgN/A
10:00 PM58 °FCool.2 mph89%30.21 "HgN/A
Weather by CustomWeather, © 2015

See weather overviewHow to use our weather pages